AAL2478 KCLT-TNCM

Flight info

Callsign AAL2478
Flight time N/A
Altitude 37000
Route KWEEN5 PITRW Y436 JAINS L451 LETON DCT IORIO DCT FIPEK Y355 SLUGO
Aircraft B738/M-SDE2E3FGHIRWXY/LB1

Departure

Time 2026-05-04 15:44
Airport Charlotte Douglas International Airport (KCLT)

Arrival

Time N/A
Airport Princess Juliana International Airport (TNCM)
Time Latitude Longitude Altitude Speed Heading
2026-05-04 15:28 35.21874 -80.94582 731 ft 0 kts 96°
2026-05-04 15:35 35.21878 -80.94620 731 ft 4 kts 96°
2026-05-04 15:35 35.21882 -80.94652 731 ft 4 kts 121°
2026-05-04 15:35 35.21897 -80.94664 729 ft 4 kts 176°
2026-05-04 15:36 35.21911 -80.94665 731 ft 0 kts 176°
2026-05-04 15:37 35.21910 -80.94665 731 ft 0 kts 176°
2026-05-04 15:38 35.21896 -80.94665 731 ft 4 kts 184°
2026-05-04 15:38 35.21871 -80.94670 731 ft 3 kts 191°
2026-05-04 15:38 35.21848 -80.94676 731 ft 4 kts 191°
2026-05-04 15:38 35.21810 -80.94684 731 ft 7 kts 191°
2026-05-04 15:39 35.21747 -80.94674 731 ft 11 kts 157°
2026-05-04 15:39 35.21672 -80.94634 731 ft 12 kts 156°
2026-05-04 15:39 35.21548 -80.94538 731 ft 6 kts 142°
2026-05-04 15:40 35.21515 -80.94508 731 ft 7 kts 143°
2026-05-04 15:40 35.21466 -80.94461 731 ft 12 kts 137°
2026-05-04 15:40 35.21397 -80.94369 729 ft 18 kts 114°
2026-05-04 15:40 35.21449 -80.94230 732 ft 21 kts 48°
2026-05-04 15:41 35.21552 -80.94091 731 ft 22 kts 48°
2026-05-04 15:41 35.21654 -80.93953 731 ft 21 kts 48°
2026-05-04 15:41 35.21750 -80.93819 731 ft 21 kts 49°
2026-05-04 15:41 35.21853 -80.93704 733 ft 20 kts 11°
2026-05-04 15:42 35.21992 -80.93712 732 ft 20 kts 356°
2026-05-04 15:42 35.22125 -80.93723 732 ft 19 kts 356°
2026-05-04 15:42 35.22254 -80.93733 732 ft 18 kts 356°
2026-05-04 15:42 35.22379 -80.93744 732 ft 18 kts 357°
2026-05-04 15:43 35.22494 -80.93734 733 ft 15 kts 42°
2026-05-04 15:43 35.22484 -80.93624 735 ft 14 kts 142°
2026-05-04 15:43 35.22324 -80.93606 735 ft 48 kts 176°
2026-05-04 15:43 35.21743 -80.93556 734 ft 117 kts 176°
2026-05-04 15:44 35.20724 -80.93468 746 ft 173 kts 176°
2026-05-04 15:44 35.19465 -80.93363 1348 ft 180 kts 176°
2026-05-04 15:44 35.18221 -80.93221 2307 ft 181 kts 175°
2026-05-04 15:44 35.16915 -80.93044 2963 ft 197 kts 175°
2026-05-04 15:45 35.15484 -80.92825 3263 ft 217 kts 176°
2026-05-04 15:45 35.13913 -80.92557 3499 ft 237 kts 174°
2026-05-04 15:45 35.12195 -80.92309 3713 ft 259 kts 175°
2026-05-04 15:45 35.10387 -80.91925 4314 ft 267 kts 173°
2026-05-04 15:46 35.08537 -80.91604 5165 ft 269 kts 175°
2026-05-04 15:46 35.06679 -80.91275 6031 ft 271 kts 174°
2026-05-04 15:46 35.04794 -80.90942 6803 ft 276 kts 175°
2026-05-04 15:46 35.02883 -80.90612 7526 ft 281 kts 175°
2026-05-04 15:47 35.00930 -80.90277 8219 ft 286 kts 175°
2026-05-04 15:47 34.98934 -80.89932 8895 ft 292 kts 175°
2026-05-04 15:47 34.96907 -80.89579 9590 ft 298 kts 175°
2026-05-04 15:47 34.94865 -80.89221 10252 ft 304 kts 175°
2026-05-04 15:48 34.92702 -80.88846 10494 ft 326 kts 175°
2026-05-04 15:48 34.90379 -80.88443 10667 ft 348 kts 174°
2026-05-04 15:48 34.85310 -80.87556 11045 ft 387 kts 174°
2026-05-04 15:49 34.82618 -80.87081 11512 ft 394 kts 174°
2026-05-04 15:49 34.79886 -80.86598 12148 ft 397 kts 174°
2026-05-04 15:49 34.77139 -80.86114 12755 ft 401 kts 174°
2026-05-04 15:49 34.74358 -80.85626 13360 ft 406 kts 174°
2026-05-04 15:50 34.71553 -80.85136 13957 ft 410 kts 174°
2026-05-04 15:50 34.68714 -80.84641 14513 ft 413 kts 175°
2026-05-04 15:50 34.65861 -80.84230 15103 ft 414 kts 178°
2026-05-04 15:50 34.62980 -80.83947 15709 ft 415 kts 179°
2026-05-04 15:51 34.60090 -80.83710 16284 ft 418 kts 179°
2026-05-04 15:51 34.57185 -80.83481 16825 ft 421 kts 179°
2026-05-04 15:51 34.54250 -80.83241 17371 ft 424 kts 179°
2026-05-04 15:51 34.51297 -80.82988 17909 ft 427 kts 179°
2026-05-04 15:52 34.48325 -80.82726 18439 ft 429 kts 179°
2026-05-04 15:52 34.45333 -80.82457 18893 ft 432 kts 179°
2026-05-04 15:52 34.42331 -80.82184 19325 ft 435 kts 179°
2026-05-04 15:52 34.39294 -80.81908 19771 ft 438 kts 179°
2026-05-04 15:53 34.36245 -80.81631 20179 ft 441 kts 180°
2026-05-04 15:53 34.33175 -80.81352 20594 ft 444 kts 180°
2026-05-04 15:53 34.30125 -80.81075 21014 ft 446 kts 180°
2026-05-04 15:53 34.27019 -80.80794 21432 ft 449 kts 180°
2026-05-04 15:54 34.23896 -80.80512 21833 ft 451 kts 180°
2026-05-04 15:54 34.20755 -80.80229 22220 ft 454 kts 180°
2026-05-04 15:54 34.17602 -80.79951 22599 ft 456 kts 180°
2026-05-04 15:54 34.14427 -80.79676 22984 ft 458 kts 180°
2026-05-04 15:55 34.11234 -80.79400 23338 ft 460 kts 180°
2026-05-04 15:55 34.08040 -80.79124 23727 ft 462 kts 180°
2026-05-04 15:55 34.04820 -80.78845 24025 ft 464 kts 181°
2026-05-04 15:55 34.01595 -80.78566 24321 ft 466 kts 181°
2026-05-04 15:56 33.98361 -80.78285 24628 ft 467 kts 181°
2026-05-04 15:56 33.95107 -80.78002 24924 ft 469 kts 181°
2026-05-04 15:56 33.91848 -80.77720 25215 ft 471 kts 181°
2026-05-04 15:56 33.88580 -80.77437 25498 ft 472 kts 181°
2026-05-04 15:57 33.85296 -80.77152 25761 ft 474 kts 181°
2026-05-04 15:57 33.82004 -80.76868 26051 ft 475 kts 181°
2026-05-04 15:57 33.78701 -80.76582 26312 ft 477 kts 181°
2026-05-04 15:57 33.75390 -80.76296 26572 ft 478 kts 181°
2026-05-04 15:58 33.72068 -80.76009 26845 ft 480 kts 181°
2026-05-04 15:58 33.68737 -80.75722 27180 ft 479 kts 181°
2026-05-04 15:58 33.65423 -80.75434 27596 ft 477 kts 181°
2026-05-04 15:58 33.62118 -80.75149 28021 ft 474 kts 181°
2026-05-04 15:59 33.58834 -80.74866 28370 ft 473 kts 182°
2026-05-04 15:59 33.55546 -80.74580 28728 ft 473 kts 180°
2026-05-04 15:59 33.52299 -80.73783 29047 ft 486 kts 165°
2026-05-04 15:59 33.49287 -80.71836 29402 ft 498 kts 147°
2026-05-04 16:00 33.46805 -80.68918 29754 ft 507 kts 131°
2026-05-04 16:00 33.44679 -80.65543 30128 ft 507 kts 130°
2026-05-04 16:00 33.42571 -80.62163 30368 ft 508 kts 130°
2026-05-04 16:00 33.40449 -80.58783 30622 ft 508 kts 131°
2026-05-04 16:01 33.38341 -80.55465 30936 ft 506 kts 131°
2026-05-04 16:01 33.36184 -80.52109 31275 ft 504 kts 131°
2026-05-04 16:01 33.34037 -80.48796 31572 ft 503 kts 131°
2026-05-04 16:01 33.31919 -80.45546 31837 ft 503 kts 132°
2026-05-04 16:02 33.29767 -80.42252 32093 ft 502 kts 132°
2026-05-04 16:02 33.27619 -80.38968 32398 ft 501 kts 132°
2026-05-04 16:02 33.23338 -80.32426 32961 ft 499 kts 132°
2026-05-04 16:03 33.21200 -80.29159 33235 ft 499 kts 132°
2026-05-04 16:03 33.19065 -80.25900 33500 ft 498 kts 132°
2026-05-04 16:03 33.16935 -80.22650 33765 ft 497 kts 132°
2026-05-04 16:03 33.14804 -80.19402 34028 ft 496 kts 132°
2026-05-04 16:04 33.12678 -80.16164 34249 ft 496 kts 132°
2026-05-04 16:04 33.08407 -80.09672 34569 ft 498 kts 132°
2026-05-04 16:04 33.06272 -80.06429 34772 ft 497 kts 132°
2026-05-04 16:05 33.04136 -80.03187 34977 ft 497 kts 132°
2026-05-04 16:05 33.02002 -79.99952 35152 ft 497 kts 132°
2026-05-04 16:05 32.97728 -79.93480 35495 ft 497 kts 132°
2026-05-04 16:06 32.95587 -79.90243 35686 ft 497 kts 133°
2026-05-04 16:06 32.89892 -79.81644 36126 ft 497 kts 133°
2026-05-04 16:07 32.87029 -79.77329 36374 ft 496 kts 133°
2026-05-04 16:07 32.80619 -79.67685 36860 ft 496 kts 133°
2026-05-04 16:08 32.78482 -79.64474 37002 ft 496 kts 133°
2026-05-04 16:08 32.72635 -79.54357 37147 ft 505 kts 116°
2026-05-04 16:09 32.70168 -79.46553 37145 ft 504 kts 112°
2026-05-04 16:10 32.65363 -79.30979 37158 ft 501 kts 113°
2026-05-04 16:11 32.60423 -79.15512 37162 ft 501 kts 114°
2026-05-04 16:12 32.52986 -78.92334 37168 ft 504 kts 114°
2026-05-04 16:13 32.47975 -78.76800 37169 ft 505 kts 114°
2026-05-04 16:14 32.42946 -78.61252 37169 ft 506 kts 114°
2026-05-04 16:16 32.36625 -78.41812 37171 ft 506 kts 114°
2026-05-04 16:17 32.30303 -78.22435 37170 ft 505 kts 114°
2026-05-04 16:18 32.25263 -78.07039 37174 ft 504 kts 115°
2026-05-04 16:19 32.18319 -77.88178 37180 ft 493 kts 130°